This demonstration page uses our WeatherBlox Daily Observations layout. Learn more.

Left ArrowRight Arrow

Hourly Observations for November 29, 2019

Temp ( °F °C ) Dew Point ( °F °C ) Humidity (%) Winds ( mph kmh ) Pressure ( in mb ) Visibility ( mi km ) Precip ( " mm )
12:53 am 00:53 Cloudy 50 10 33 0.6 52 52 Calm 30.24 1024 10 16 0.00 0.00
1:53 am 01:53 Cloudy 51 10.6 33 0.6 50 50 NW 5 7 30.23 1024 10 16 0.00 0.00
2:53 am 02:53 Cloudy 51 10.6 33 0.6 50 50 Calm 30.24 1024 10 16 0.00 0.00
3:53 am 03:53 Cloudy 51 10.6 34 1.1 52 52 NNE 3 6 30.24 1024 10 16 0.00 0.00
4:53 am 04:53 Cloudy 50 10 35 1.7 57 57 NNE 3 6 30.24 1024 10 16 0.00 0.00
5:53 am 05:53 Partly Cloudy 48 8.9 36 2.2 63 63 Calm 30.24 1024 10 16 0.00 0.00
6:53 am 06:53 Mostly Cloudy 47 8.3 37 2.8 69 69 Calm 30.24 1024 10 16 0.00 0.00
7:53 am 07:53 Cloudy 49 9.4 38 3.3 66 66 Calm 30.26 1025 10 16 0.00 0.00
8:53 am 08:53 Cloudy 51 10.6 37 2.8 59 59 Calm 30.27 1025 10 16 0.00 0.00
9:53 am 09:53 Cloudy 54 12.2 38 3.3 55 55 VRB 3 6 30.29 1026 10 16 0.00 0.00
10:53 am 10:53 Mostly Cloudy 58 14.4 36 2.2 44 44 SE 5 7 30.28 1025 10 16 0.00 0.00
11:53 am 11:53 Sunny 62 16.7 37 2.8 40 40 Calm 30.24 1024 10 16 0.00 0.00
12:53 pm 12:53 Mostly Cloudy 64 17.8 38 3.3 38 38 SSE 3 6 30.21 1023 10 16 0.00 0.00
1:53 pm 13:53 Cloudy 67 19.4 38 3.3 35 35 ENE 6 9 30.16 1021 10 16 0.00 0.00
2:53 pm 14:53 Cloudy 68 20 40 4.4 36 36 WNW 7 11 30.16 1021 10 16 0.00 0.00
3:53 pm 15:53 Cloudy 67 19.4 40 4.4 37 37 NW 5 7 30.14 1021 10 16 0.00 0.00
4:53 pm 16:53 Cloudy 66 18.9 40 4.4 39 39 NNW 7 11 30.15 1021 10 16 0.00 0.00
5:53 pm 17:53 Clear 62 16.7 39 3.9 43 43 NW 3 6 30.14 1021 10 16 0.00 0.00
6:53 pm 18:53 Mostly Clear 60 15.6 40 4.4 47 47 Calm 30.14 1021 10 16 0.00 0.00
7:53 pm 19:53 Mostly Clear 57 13.9 42 5.6 58 58 Calm 30.14 1021 10 16 0.00 0.00
8:53 pm 20:53 Clear 55 12.8 42 5.6 62 62 Calm 30.13 1020 10 16 0.00 0.00
9:53 pm 21:53 Clear 52 11.1 43 6.1 72 72 Calm 30.12 1020 10 16 0.00 0.00
10:53 pm 22:53 Clear 51 10.6 44 6.7 77 77 Calm 30.11 1020 10 16 0.00 0.00
11:43 pm 23:43 Mostly Cloudy 53 11.7 44 6.7 72 72 Calm 30.10 1019 10 16 0.00 0.00
11:53 pm 23:53 Cloudy 53 11.7 45 7.2 74 74 Calm 30.09 1019 10 16 0.00 0.00

Powered by AerisWeather